NWS411 ULLI-UMMS

Flight info

Callsign NWS411
Flight time 1h 8m
Altitude 40000
Route RUMOL1B RUMOL N171 LUMIT M984 LEGSI/K0826F390 N743 DAHRU/K0741F280 T398 PENAL PENAL2H
Aircraft A333/H-SDE3GHIJ2J3J5M1RVWXY/LB2D1

Departure

Time 2026-05-04 12:07
Airport Pulkovo Airport (ULLI)

Arrival

Time 2026-05-04 13:15
Airport Minsk National Airport (UMMS)
Time Latitude Longitude Altitude Speed Heading
2026-05-04 11:56 59.79750 30.25913 89 ft 0 kts 286°
2026-05-04 12:00 59.79748 30.25923 94 ft 4 kts 286°
2026-05-04 12:00 59.79741 30.25974 92 ft 4 kts 286°
2026-05-04 12:00 59.79733 30.26025 89 ft 4 kts 286°
2026-05-04 12:00 59.79728 30.26069 94 ft 4 kts 261°
2026-05-04 12:01 59.79740 30.26107 90 ft 4 kts 207°
2026-05-04 12:01 59.79758 30.26122 90 ft 1 kts 197°
2026-05-04 12:02 59.79698 30.26086 93 ft 18 kts 198°
2026-05-04 12:03 59.79569 30.26013 93 ft 14 kts 166°
2026-05-04 12:03 59.79527 30.26152 95 ft 17 kts 107°
2026-05-04 12:03 59.79477 30.26483 93 ft 33 kts 107°
2026-05-04 12:03 59.79397 30.27002 94 ft 45 kts 107°
2026-05-04 12:04 59.79300 30.27670 96 ft 55 kts 107°
2026-05-04 12:04 59.79239 30.28065 95 ft 22 kts 107°
2026-05-04 12:04 59.79179 30.28226 98 ft 4 kts 148°
2026-05-04 12:04 59.79158 30.28250 99 ft 0 kts 158°
2026-05-04 12:05 59.79138 30.28252 98 ft 9 kts 175°
2026-05-04 12:05 59.79060 30.28207 99 ft 10 kts 234°
2026-05-04 12:05 59.79068 30.28026 97 ft 20 kts 286°
2026-05-04 12:05 59.79076 30.27977 96 ft 0 kts 286°
2026-05-04 12:06 59.79082 30.27934 98 ft 24 kts 287°
2026-05-04 12:06 59.79222 30.26984 92 ft 117 kts 286°
2026-05-04 12:06 59.79541 30.24908 214 ft 191 kts 285°
2026-05-04 12:07 59.79991 30.22071 826 ft 231 kts 284°
2026-05-04 12:07 59.80447 30.19036 1730 ft 235 kts 282°
2026-05-04 12:07 59.80888 30.15966 2832 ft 229 kts 281°
2026-05-04 12:07 59.81255 30.12973 3987 ft 223 kts 273°
2026-05-04 12:08 59.81228 30.09859 4771 ft 229 kts 255°
2026-05-04 12:08 59.80687 30.06846 5618 ft 233 kts 244°
2026-05-04 12:08 59.79823 30.04133 6597 ft 234 kts 230°
2026-05-04 12:08 59.78519 30.02137 7523 ft 244 kts 210°
2026-05-04 12:09 59.76811 30.01489 8454 ft 263 kts 183°
2026-05-04 12:09 59.75013 30.02692 9364 ft 285 kts 159°
2026-05-04 12:09 59.73306 30.04861 10076 ft 301 kts 154°
2026-05-04 12:09 59.71523 30.07293 10416 ft 324 kts 153°
2026-05-04 12:10 59.69605 30.09893 10813 ft 342 kts 153°
2026-05-04 12:10 59.67614 30.12560 11435 ft 351 kts 153°
2026-05-04 12:10 59.65568 30.15276 12201 ft 356 kts 153°
2026-05-04 12:10 59.63493 30.18008 12965 ft 361 kts 153°
2026-05-04 12:11 59.61388 30.20763 13708 ft 366 kts 154°
2026-05-04 12:11 59.59247 30.23551 14414 ft 370 kts 154°
2026-05-04 12:11 59.57084 30.26360 15134 ft 374 kts 154°
2026-05-04 12:11 59.54900 30.29189 15832 ft 378 kts 154°
2026-05-04 12:12 59.52689 30.32046 16527 ft 382 kts 154°
2026-05-04 12:12 59.50455 30.34928 17235 ft 386 kts 154°
2026-05-04 12:12 59.48211 30.37818 17915 ft 390 kts 154°
2026-05-04 12:12 59.45925 30.40756 18510 ft 394 kts 154°
2026-05-04 12:13 59.43649 30.43678 19091 ft 397 kts 154°
2026-05-04 12:14 59.26927 30.65000 23050 ft 422 kts 153°
2026-05-04 12:15 59.24459 30.68127 23554 ft 425 kts 153°
2026-05-04 12:15 59.21962 30.71282 24031 ft 428 kts 153°
2026-05-04 12:15 59.19452 30.74450 24481 ft 430 kts 153°
2026-05-04 12:15 59.16916 30.77569 24951 ft 431 kts 156°
2026-05-04 12:16 59.14231 30.80071 25396 ft 425 kts 167°
2026-05-04 12:16 59.11411 30.81518 25808 ft 419 kts 178°
2026-05-04 12:16 59.08529 30.81855 26232 ft 412 kts 188°
2026-05-04 12:16 59.05689 30.81227 26646 ft 411 kts 195°
2026-05-04 12:17 59.02885 30.80186 27082 ft 411 kts 198°
2026-05-04 12:17 59.00092 30.78955 27556 ft 412 kts 199°
2026-05-04 12:17 58.97298 30.77651 27994 ft 414 kts 199°
2026-05-04 12:17 58.94485 30.76338 28436 ft 417 kts 199°
2026-05-04 12:18 58.91653 30.75044 28883 ft 420 kts 199°
2026-05-04 12:18 58.88797 30.73770 29322 ft 422 kts 198°
2026-05-04 12:18 58.85920 30.72514 29754 ft 425 kts 198°
2026-05-04 12:18 58.83024 30.71268 30074 ft 428 kts 198°
2026-05-04 12:19 58.80107 30.70023 30386 ft 432 kts 198°
2026-05-04 12:19 58.77164 30.68772 30715 ft 434 kts 198°
2026-05-04 12:19 58.74240 30.67533 31062 ft 437 kts 198°
2026-05-04 12:19 58.71224 30.66256 31427 ft 439 kts 198°
2026-05-04 12:20 58.68275 30.65008 31762 ft 441 kts 198°
2026-05-04 12:20 58.65244 30.63729 32270 ft 439 kts 198°
2026-05-04 12:20 58.62265 30.62474 32796 ft 437 kts 198°
2026-05-04 12:20 58.59336 30.61242 33301 ft 436 kts 198°
2026-05-04 12:21 58.56378 30.59999 33790 ft 435 kts 198°
2026-05-04 12:21 58.53421 30.58756 34165 ft 435 kts 198°
2026-05-04 12:21 58.50469 30.57515 34539 ft 435 kts 197°
2026-05-04 12:21 58.47474 30.56259 34913 ft 435 kts 197°
2026-05-04 12:22 58.44559 30.55039 35265 ft 435 kts 197°
2026-05-04 12:22 58.41565 30.53788 35626 ft 435 kts 197°
2026-05-04 12:22 58.38644 30.52570 35960 ft 435 kts 197°
2026-05-04 12:22 58.35684 30.51337 36311 ft 436 kts 197°
2026-05-04 12:23 58.32722 30.50107 36652 ft 436 kts 197°
2026-05-04 12:23 58.29763 30.48880 36983 ft 436 kts 197°
2026-05-04 12:23 58.26786 30.47646 37191 ft 439 kts 197°
2026-05-04 12:23 58.23799 30.46411 37468 ft 440 kts 197°
2026-05-04 12:24 58.20815 30.45181 37864 ft 438 kts 197°
2026-05-04 12:24 58.17834 30.43956 38231 ft 438 kts 197°
2026-05-04 12:24 58.14861 30.42736 38528 ft 437 kts 197°
2026-05-04 12:24 58.11887 30.41517 38767 ft 438 kts 197°
2026-05-04 12:25 58.08908 30.40296 38990 ft 438 kts 197°
2026-05-04 12:25 58.05925 30.39076 39210 ft 439 kts 197°
2026-05-04 12:25 58.02938 30.37856 39427 ft 439 kts 196°
2026-05-04 12:25 57.99950 30.36637 39645 ft 440 kts 196°
2026-05-04 12:26 57.96950 30.35416 39748 ft 443 kts 196°
2026-05-04 12:26 57.93919 30.34182 39754 ft 448 kts 196°
2026-05-04 12:26 57.87807 30.31705 39767 ft 449 kts 196°
2026-05-04 12:27 57.81705 30.29246 39784 ft 448 kts 196°
2026-05-04 12:27 57.75610 30.26797 39770 ft 448 kts 196°
2026-05-04 12:28 57.69517 30.24354 39770 ft 448 kts 196°
2026-05-04 12:28 57.63414 30.21915 39774 ft 448 kts 196°
2026-05-04 12:29 57.57321 30.19489 39770 ft 448 kts 196°
2026-05-04 12:29 57.51234 30.17074 39761 ft 447 kts 196°
2026-05-04 12:30 57.45132 30.14660 39782 ft 449 kts 196°
2026-05-04 12:30 57.39013 30.12248 39765 ft 450 kts 196°
2026-05-04 12:31 57.32893 30.09845 39788 ft 449 kts 195°
2026-05-04 12:31 57.26785 30.07455 39789 ft 449 kts 195°
2026-05-04 12:32 57.17617 30.03881 39796 ft 449 kts 195°
2026-05-04 12:33 57.11509 30.01511 39796 ft 449 kts 195°
2026-05-04 12:33 57.05399 29.99147 39799 ft 448 kts 195°
2026-05-04 12:34 56.99297 29.96794 39807 ft 448 kts 195°
2026-05-04 12:34 56.93194 29.94450 39806 ft 448 kts 195°
2026-05-04 12:35 56.87088 29.92111 39809 ft 448 kts 195°
2026-05-04 12:35 56.80994 29.89784 39800 ft 448 kts 195°
2026-05-04 12:36 56.74893 29.87463 39812 ft 448 kts 195°
2026-05-04 12:36 56.68833 29.85166 39811 ft 448 kts 195°
2026-05-04 12:37 56.62737 29.82862 39821 ft 447 kts 195°
2026-05-04 12:37 56.56640 29.80560 39827 ft 447 kts 195°
2026-05-04 12:38 56.50547 29.78272 39825 ft 447 kts 195°
2026-05-04 12:38 56.44452 29.75996 39825 ft 447 kts 195°
2026-05-04 12:39 56.38363 29.73726 39828 ft 447 kts 195°
2026-05-04 12:39 56.32271 29.71462 39827 ft 447 kts 195°
2026-05-04 12:40 56.26181 29.69205 39812 ft 447 kts 195°
2026-05-04 12:40 56.20089 29.66954 39829 ft 447 kts 195°
2026-05-04 12:41 56.13990 29.64708 39826 ft 447 kts 195°
2026-05-04 12:41 56.08926 29.62850 39826 ft 447 kts 195°
2026-05-04 12:42 56.02834 29.60621 39827 ft 447 kts 195°
2026-05-04 12:42 55.96745 29.58400 39669 ft 446 kts 194°
2026-05-04 12:42 55.93700 29.57293 39265 ft 444 kts 195°
2026-05-04 12:43 55.90677 29.56198 38924 ft 440 kts 195°
2026-05-04 12:43 55.87687 29.55116 38539 ft 437 kts 195°
2026-05-04 12:43 55.84729 29.54046 38033 ft 435 kts 195°
2026-05-04 12:43 55.81767 29.52974 37451 ft 434 kts 195°
2026-05-04 12:44 55.78804 29.51902 36849 ft 435 kts 195°
2026-05-04 12:44 55.75838 29.50830 36207 ft 435 kts 195°
2026-05-04 12:44 55.72902 29.49619 35579 ft 433 kts 201°
2026-05-04 12:44 55.70145 29.47673 34926 ft 430 kts 211°
2026-05-04 12:45 55.67585 29.44955 34263 ft 429 kts 216°
2026-05-04 12:45 55.65122 29.41998 33613 ft 429 kts 218°
2026-05-04 12:45 55.62692 29.38906 32847 ft 430 kts 219°
2026-05-04 12:45 55.60283 29.35764 32058 ft 431 kts 219°
2026-05-04 12:46 55.57884 29.32617 31305 ft 433 kts 219°
2026-05-04 12:46 55.55456 29.29447 30624 ft 433 kts 219°
2026-05-04 12:46 55.53043 29.26322 30032 ft 430 kts 218°
2026-05-04 12:46 55.50655 29.23251 29411 ft 427 kts 218°
2026-05-04 12:47 55.48272 29.20204 28806 ft 423 kts 218°
2026-05-04 12:47 55.45896 29.17177 28174 ft 420 kts 218°
2026-05-04 12:47 55.43546 29.14190 27622 ft 416 kts 218°
2026-05-04 12:47 55.41223 29.11242 27057 ft 411 kts 218°
2026-05-04 12:48 55.38915 29.08317 26523 ft 407 kts 218°
2026-05-04 12:48 55.36635 29.05431 25977 ft 404 kts 218°
2026-05-04 12:48 55.34395 29.02598 25441 ft 400 kts 218°
2026-05-04 12:48 55.32147 28.99759 24915 ft 396 kts 218°
2026-05-04 12:49 55.29889 28.96911 24384 ft 393 kts 218°
2026-05-04 12:49 55.27601 28.94428 23867 ft 393 kts 209°
2026-05-04 12:49 55.25034 28.92790 23335 ft 395 kts 197°
2026-05-04 12:49 55.22337 28.91903 22745 ft 394 kts 192°
2026-05-04 12:50 55.19653 28.91320 22178 ft 391 kts 190°
2026-05-04 12:50 55.16948 28.90895 21602 ft 388 kts 188°
2026-05-04 12:50 55.14267 28.90539 21082 ft 385 kts 188°
2026-05-04 12:50 55.11604 28.90196 20885 ft 383 kts 188°
2026-05-04 12:51 55.08944 28.89836 20850 ft 384 kts 188°
2026-05-04 12:51 55.06282 28.89455 20849 ft 383 kts 189°
2026-05-04 12:51 55.03635 28.89061 20421 ft 381 kts 189°
2026-05-04 12:51 55.00996 28.88657 19840 ft 379 kts 189°
2026-05-04 12:52 54.98383 28.88253 19294 ft 375 kts 189°
2026-05-04 12:52 54.95786 28.87847 18741 ft 372 kts 189°
2026-05-04 12:52 54.93215 28.87446 18204 ft 370 kts 189°
2026-05-04 12:52 54.90666 28.87051 17601 ft 366 kts 189°
2026-05-04 12:53 54.88146 28.86661 17003 ft 363 kts 189°
2026-05-04 12:53 54.85634 28.86228 16415 ft 359 kts 193°
2026-05-04 12:53 54.83249 28.85152 15819 ft 351 kts 205°
2026-05-04 12:53 54.81084 28.83313 15204 ft 347 kts 212°
2026-05-04 12:54 54.79010 28.81198 14598 ft 345 kts 214°
2026-05-04 12:54 54.76975 28.79040 14032 ft 342 kts 215°
2026-05-04 12:54 54.74958 28.76878 13505 ft 339 kts 215°
2026-05-04 12:54 54.72963 28.74738 12894 ft 336 kts 215°
2026-05-04 12:55 54.70982 28.72612 12265 ft 334 kts 214°
2026-05-04 12:55 54.69032 28.70521 11691 ft 331 kts 214°
2026-05-04 12:55 54.67092 28.68443 11174 ft 328 kts 214°
2026-05-04 12:55 54.65190 28.66408 10923 ft 325 kts 214°
2026-05-04 12:56 54.63237 28.64318 10874 ft 326 kts 214°
2026-05-04 12:56 54.61330 28.62280 10874 ft 327 kts 214°
2026-05-04 12:56 54.59379 28.60199 10878 ft 327 kts 214°
2026-05-04 12:56 54.57474 28.58170 10879 ft 327 kts 214°
2026-05-04 12:57 54.55541 28.56112 10876 ft 327 kts 214°
2026-05-04 12:57 54.53609 28.54057 10878 ft 327 kts 214°
2026-05-04 12:57 54.51756 28.52006 10882 ft 309 kts 218°
2026-05-04 12:57 54.50092 28.49893 10885 ft 290 kts 220°
2026-05-04 12:58 54.48536 28.47843 10899 ft 279 kts 220°
2026-05-04 12:58 54.47007 28.45809 10883 ft 278 kts 220°
2026-05-04 12:58 54.45470 28.43768 10553 ft 280 kts 220°
2026-05-04 12:58 54.43931 28.41727 10177 ft 279 kts 220°
2026-05-04 12:59 54.42395 28.39700 9811 ft 277 kts 220°
2026-05-04 12:59 54.40876 28.37697 9440 ft 274 kts 220°
2026-05-04 12:59 54.39372 28.35715 9051 ft 272 kts 220°
2026-05-04 12:59 54.37878 28.33749 8665 ft 271 kts 219°
2026-05-04 13:00 54.36380 28.31782 8268 ft 269 kts 219°
2026-05-04 13:00 54.34910 28.29853 7908 ft 266 kts 219°
2026-05-04 13:00 54.33444 28.27927 7563 ft 265 kts 219°
2026-05-04 13:00 54.31993 28.26023 7243 ft 261 kts 219°
2026-05-04 13:01 54.30557 28.24144 6870 ft 259 kts 219°
2026-05-04 13:01 54.29125 28.22276 6506 ft 258 kts 219°
2026-05-04 13:01 54.27733 28.20375 6156 ft 255 kts 224°
2026-05-04 13:01 54.26609 28.18057 5766 ft 253 kts 239°
2026-05-04 13:02 54.25988 28.15261 5339 ft 253 kts 259°
2026-05-04 13:02 54.25961 28.12247 4931 ft 256 kts 273°
2026-05-04 13:02 54.26173 28.09239 4620 ft 253 kts 275°
2026-05-04 13:02 54.26426 28.06261 4197 ft 253 kts 275°
2026-05-04 13:03 54.26680 28.03291 3796 ft 252 kts 275°
2026-05-04 13:03 54.26930 28.00316 3443 ft 253 kts 275°
2026-05-04 13:03 54.27181 27.97355 3180 ft 250 kts 275°
2026-05-04 13:03 54.27426 27.94431 2925 ft 247 kts 275°
2026-05-04 13:04 54.27664 27.91507 2897 ft 249 kts 275°
2026-05-04 13:04 54.27904 27.88573 2888 ft 249 kts 275°
2026-05-04 13:04 54.28143 27.85649 2926 ft 248 kts 275°
2026-05-04 13:04 54.28384 27.82756 2948 ft 239 kts 275°
2026-05-04 13:05 54.28611 27.80021 2951 ft 225 kts 274°
2026-05-04 13:05 54.28813 27.77430 2950 ft 215 kts 274°
2026-05-04 13:05 54.28917 27.74895 2948 ft 212 kts 265°
2026-05-04 13:05 54.28704 27.72402 2946 ft 214 kts 253°
2026-05-04 13:06 54.28112 27.70065 2938 ft 214 kts 238°
2026-05-04 13:06 54.27152 27.68164 2918 ft 214 kts 212°
2026-05-04 13:06 54.25697 27.67529 2967 ft 222 kts 187°
2026-05-04 13:06 54.24146 27.67372 2950 ft 224 kts 186°
2026-05-04 13:07 54.22593 27.67253 2944 ft 222 kts 187°
2026-05-04 13:07 54.21053 27.67131 2955 ft 222 kts 187°
2026-05-04 13:07 54.19509 27.67002 2931 ft 222 kts 187°
2026-05-04 13:07 54.17961 27.66892 2933 ft 222 kts 187°
2026-05-04 13:08 54.16427 27.66899 2960 ft 223 kts 178°
2026-05-04 13:08 54.14899 27.67469 2946 ft 227 kts 165°
2026-05-04 13:08 54.13444 27.68567 2951 ft 231 kts 155°
2026-05-04 13:08 54.12069 27.70007 2963 ft 233 kts 149°
2026-05-04 13:09 54.10746 27.71613 2956 ft 233 kts 149°
2026-05-04 13:09 54.09395 27.73148 2967 ft 233 kts 150°
2026-05-04 13:09 54.08041 27.74662 2964 ft 233 kts 151°
2026-05-04 13:09 54.06693 27.76196 2958 ft 233 kts 150°
2026-05-04 13:10 54.05349 27.77744 2970 ft 234 kts 149°
2026-05-04 13:10 54.04072 27.79463 2954 ft 235 kts 143°
2026-05-04 13:10 54.02833 27.81281 2962 ft 235 kts 143°
2026-05-04 13:10 54.01599 27.83118 2964 ft 237 kts 144°
2026-05-04 13:11 54.00368 27.84962 2968 ft 232 kts 143°
2026-05-04 13:11 53.99205 27.86707 2991 ft 210 kts 144°
2026-05-04 13:11 53.98183 27.88190 3010 ft 178 kts 149°
2026-05-04 13:11 53.97293 27.89460 2881 ft 171 kts 144°
2026-05-04 13:12 53.96399 27.90803 2464 ft 173 kts 144°
2026-05-04 13:12 53.95505 27.92183 1991 ft 173 kts 143°
2026-05-04 13:12 53.94626 27.93561 1622 ft 170 kts 143°
2026-05-04 13:12 53.93757 27.94890 1456 ft 164 kts 144°
2026-05-04 13:13 53.92948 27.96111 1374 ft 154 kts 145°
2026-05-04 13:13 53.92127 27.97295 1081 ft 147 kts 143°
2026-05-04 13:13 53.91424 27.98372 967 ft 126 kts 143°
2026-05-04 13:13 53.90794 27.99321 910 ft 126 kts 143°
2026-05-04 13:14 53.90117 28.00302 819 ft 127 kts 141°
2026-05-04 13:14 53.89467 28.01279 697 ft 126 kts 141°
2026-05-04 13:14 53.88916 28.02063 668 ft 118 kts 141°
2026-05-04 13:14 53.88482 28.02735 668 ft 102 kts 146°
2026-05-04 13:15 53.88270 28.03016 669 ft 96 kts 136°
2026-05-04 13:15 53.87789 28.03748 668 ft 89 kts 139°
2026-05-04 13:15 53.87364 28.04367 669 ft 75 kts 138°
2026-05-04 13:15 53.87085 28.04804 670 ft 30 kts 124°
2026-05-04 13:16 53.87135 28.05059 673 ft 18 kts 22°
2026-05-04 13:16 53.87188 28.05024 673 ft 10 kts 323°
2026-05-04 13:16 53.87261 28.04919 673 ft 17 kts 320°
2026-05-04 13:16 53.87368 28.04765 673 ft 23 kts 319°
2026-05-04 13:17 53.87501 28.04569 673 ft 27 kts 319°
2026-05-04 13:17 53.87652 28.04339 673 ft 31 kts 317°
2026-05-04 13:17 53.89628 28.01036 737 ft 131 kts 143°
2026-05-04 13:17 53.89557 28.01141 730 ft 126 kts 143°
2026-05-04 13:18 53.89527 28.01187 725 ft 126 kts 142°
2026-05-04 13:18 53.89355 28.01443 685 ft 126 kts 143°
2026-05-04 13:18 53.88667 28.02482 670 ft 108 kts 136°
2026-05-04 13:18 53.88109 28.03274 670 ft 94 kts 139°
2026-05-04 13:19 53.87646 28.03959 669 ft 82 kts 140°
2026-05-04 13:19 53.87369 28.04359 669 ft 75 kts 138°
2026-05-04 13:19 53.87067 28.04909 671 ft 28 kts 87°
2026-05-04 13:19 53.87157 28.05058 673 ft 7 kts 342°
2026-05-04 13:20 53.87192 28.05018 673 ft 11 kts 322°